Weather History for KTYQ - April, 2014

Change the Weather History Date:

Wednesday, April 30, 2014

  Actual Average (KEYE) Record (KEYE)
Temperature  
Mean Temperature 52 °F 58 °F  
Max Temperature 62 °F 68 °F 87 °F (2007)
Min Temperature 41 °F 48 °F 36 °F (2008)
Degree Days  
Heating Degree Days 14 8  
Month to date heating degree days 369  
Since 1 July heating degree days 5195  
Cooling Degree Days 0 1  
Month to date cooling degree days 14  
Year to date cooling degree days 15  
Growing Degree Days 2 (Base 50)    
Moisture  
Dew Point 44 °F    
Average Humidity 74    
Maximum Humidity 90    
Minimum Humidity 51    
Precipitation  
Precipitation 0.00 in 0.20 in 0.98 in (1998)
Month to date precipitation 3.90  
Year to date precipitation 11.54  
Sea Level Pressure  
Sea Level Pressure 29.79 in    
Wind  
Wind Speed 8 mph (SSW)    
Max Wind Speed 17 mph    
Max Gust Speed 24 mph    
Visibility 9 miles    
Events Rain    
T = Trace of Precipitation, MM = Missing Value Source: NWS Daily Summary

Daily Weather History Graph

Daily Weather History Graph

Search for Another Location

Airport or City:

Trip Planner

Search our weather history database for the weather conditions in past years. The results will help you decide how hot, cold, wet, or windy it might be!

Date:

Astronomy

Apr. 30, 2014 Rise Set
Actual Time 6:46 AM EDT 8:38 PM EDT
Civil Twilight 6:17 AM EDT 9:08 PM EDT
Nautical Twilight 5:41 AM EDT 9:43 PM EDT
Astronomical Twilight 5:03 AM EDT 10:22 PM EDT
Moon 7:47 AM EDT (4/30) 10:17 PM EDT (4/30)
Length of Visible Light 14h 51m
Length of Day
13h 52m
New Moon, 2% of the Moon is Illuminated
Apr 30
New Moon
May 6
First Quarter
May 14
Full
May 21
Last Quarter
May 28
New

Hourly Weather History & Observations

Time (EDT) Temp. Windchill Dew Point Humidity Pressure Visibility Wind Dir Wind Speed Gust Speed Precip Events Conditions
12:15 AM 52.3 °F - 46.4 °F 80% 29.75 in 10.0 mi South 6.9 mph - N/A   Scattered Clouds
12:35 AM 51.8 °F - 46.4 °F 82% 29.74 in 10.0 mi South 5.8 mph - N/A   Clear
12:55 AM 51.6 °F - 46.4 °F 82% 29.74 in 10.0 mi South 5.8 mph - N/A   Clear
1:15 AM 50.4 °F - 45.9 °F 85% 29.75 in 10.0 mi SSE 6.9 mph - N/A   Clear
1:35 AM 50.9 °F - 46.4 °F 85% 29.75 in 10.0 mi SSE 5.8 mph - N/A   Clear
1:55 AM 50.4 °F - 45.9 °F 85% 29.75 in 10.0 mi South 4.6 mph - N/A   Clear
2:15 AM 50.2 °F - 46.0 °F 86% 29.75 in 10.0 mi SSE 6.9 mph - N/A   Clear
2:35 AM 50.5 °F - 46.4 °F 86% 29.75 in 10.0 mi SSE 5.8 mph - N/A   Clear
2:55 AM 50.0 °F - 46.0 °F 86% 29.75 in 10.0 mi SSE 5.8 mph - N/A   Clear
3:15 AM 49.5 °F - 45.7 °F 87% 29.75 in 10.0 mi SSE 5.8 mph - N/A   Clear
3:35 AM 50.0 °F - 46.4 °F 87% 29.74 in 10.0 mi SSE 6.9 mph - N/A   Clear
3:55 AM 50.0 °F - 46.4 °F 87% 29.74 in 10.0 mi South 5.8 mph - N/A   Clear
4:15 AM 49.6 °F - 45.9 °F 87% 29.75 in 10.0 mi South 6.9 mph - N/A   Clear
4:35 AM 50.2 °F - 46.6 °F 87% 29.75 in 10.0 mi South 6.9 mph - N/A   Scattered Clouds
4:55 AM 50.9 °F - 47.3 °F 87% 29.76 in 10.0 mi South 8.1 mph - N/A   Mostly Cloudy
5:15 AM 51.4 °F - 47.5 °F 86% 29.76 in 10.0 mi SW 6.9 mph - N/A   Overcast
5:35 AM 51.8 °F - 47.5 °F 85% 29.75 in 10.0 mi South 4.6 mph - N/A   Overcast
5:55 AM 50.0 °F - 46.0 °F 86% 29.76 in 10.0 mi SW 4.6 mph - N/A   Mostly Cloudy
6:15 AM 49.3 °F - 45.5 °F 87% 29.77 in 10.0 mi Calm Calm - N/A   Scattered Clouds
6:35 AM 48.9 °F - 45.5 °F 88% 29.77 in 10.0 mi Calm Calm - N/A   Overcast
6:55 AM 47.8 °F - 44.4 °F 88% 29.77 in 4.0 mi Calm Calm - N/A   Mostly Cloudy
7:15 AM 47.3 °F - 44.2 °F 89% 29.78 in 2.5 mi SE 4.6 mph - N/A   Mostly Cloudy
7:35 AM 50.0 °F - 47.3 °F 90% 29.78 in 4.0 mi Calm Calm - N/A   Overcast
7:55 AM 50.9 °F - 47.8 °F 89% 29.78 in 5.0 mi South 4.6 mph - N/A   Overcast
8:15 AM 51.4 °F - 48.4 °F 89% 29.79 in 4.0 mi SSE 3.5 mph - N/A   Overcast
8:35 AM 51.8 °F - 48.4 °F 88% 29.78 in 5.0 mi South 4.6 mph - N/A   Overcast
8:55 AM 52.2 °F - 48.4 °F 87% 29.78 in 5.0 mi South 4.6 mph - N/A   Overcast
9:15 AM 53.1 °F - 48.6 °F 85% 29.77 in 7.0 mi South 4.6 mph - N/A   Overcast
9:35 AM 53.6 °F - 48.4 °F 82% 29.78 in 10.0 mi South 6.9 mph - N/A   Overcast
9:55 AM 54.5 °F - 48.6 °F 80% 29.78 in 10.0 mi South 6.9 mph - N/A   Overcast
10:15 AM 55.4 °F - 48.4 °F 77% 29.78 in 10.0 mi South 6.9 mph - N/A   Overcast
10:35 AM 56.7 °F - 48.6 °F 74% 29.78 in 10.0 mi South 8.1 mph - N/A   Overcast
10:55 AM 57.0 °F - 47.8 °F 71% 29.78 in 10.0 mi South 9.2 mph - N/A   Overcast
11:15 AM 59.0 °F - 48.6 °F 68% 29.77 in 10.0 mi South 9.2 mph - N/A   Overcast
11:35 AM 59.2 °F - 47.8 °F 66% 29.77 in 10.0 mi South 8.1 mph - N/A   Overcast
11:55 AM 60.1 °F - 47.5 °F 63% 29.77 in 10.0 mi South 8.1 mph - N/A   Mostly Cloudy
12:15 PM 59.0 °F - 46.4 °F 63% 29.77 in 10.0 mi SSW 8.1 mph - N/A   Overcast
12:35 PM 59.2 °F - 46.0 °F 62% 29.77 in 10.0 mi SW 13.8 mph - N/A   Overcast
12:55 PM 61.0 °F - 44.6 °F 55% 29.76 in 10.0 mi SW 15.0 mph 20.7 mph N/A   Overcast
1:15 PM 60.8 °F - 44.6 °F 55% 29.76 in 10.0 mi SW 13.8 mph 18.4 mph N/A   Mostly Cloudy
1:35 PM 61.2 °F - 43.7 °F 53% 29.76 in 10.0 mi WSW 15.0 mph 21.9 mph N/A   Overcast
1:55 PM 60.4 °F - 44.6 °F 56% 29.77 in 10.0 mi WSW 13.8 mph 17.3 mph N/A   Overcast
2:15 PM 60.1 °F - 43.2 °F 54% 29.77 in 10.0 mi SW 15.0 mph 18.4 mph N/A   Overcast
2:35 PM 61.2 °F - 42.8 °F 51% 29.78 in 10.0 mi WSW 13.8 mph - N/A   Overcast
2:55 PM 59.9 °F - 42.3 °F 52% 29.79 in 10.0 mi WSW 16.1 mph 20.7 mph N/A   Overcast
3:15 PM 60.1 °F - 42.8 °F 53% 29.78 in 10.0 mi West 16.1 mph 20.7 mph N/A   Overcast
3:35 PM 61.2 °F - 43.2 °F 52% 29.78 in 10.0 mi WSW 13.8 mph 23.0 mph N/A   Overcast
3:55 PM 59.5 °F - 43.9 °F 56% 29.79 in 10.0 mi West 17.3 mph 20.7 mph N/A   Overcast
4:15 PM 58.3 °F - 44.8 °F 61% 29.79 in 10.0 mi WSW 17.3 mph 23.0 mph N/A   Overcast
4:35 PM 57.2 °F - 44.4 °F 62% 29.80 in 10.0 mi WSW 15.0 mph 20.7 mph N/A   Overcast
4:55 PM 54.9 °F - 43.9 °F 66% 29.81 in 10.0 mi West 15.0 mph 21.9 mph N/A   Overcast
5:15 PM 54.0 °F - 43.9 °F 69% 29.82 in 10.0 mi West 13.8 mph 19.6 mph N/A   Overcast
5:35 PM 52.7 °F - 45.0 °F 75% 29.83 in 7.0 mi West 16.1 mph 24.2 mph N/A   Overcast
5:55 PM 50.4 °F - 44.8 °F 81% 29.83 in 2.5 mi West 17.3 mph 24.2 mph N/A Rain Rain
6:15 PM 50.0 °F - 44.8 °F 82% 29.83 in 2.5 mi West 10.4 mph 17.3 mph N/A   Drizzle
6:35 PM 50.9 °F - 44.8 °F 80% 29.83 in 10.0 mi West 9.2 mph - N/A   Overcast
6:55 PM 50.9 °F - 42.1 °F 72% 29.84 in 10.0 mi West 12.7 mph 19.6 mph N/A   Overcast
7:15 PM 50.2 °F - 40.3 °F 69% 29.84 in 10.0 mi West 12.7 mph - N/A   Overcast
7:35 PM 49.6 °F - 39.2 °F 67% 29.85 in 10.0 mi West 15.0 mph 24.2 mph N/A   Overcast
8:15 PM 48.4 °F - 37.4 °F 66% 29.88 in 10.0 mi West 16.1 mph 20.7 mph N/A   Overcast
8:35 PM 48.2 °F - 35.6 °F 62% 29.88 in 10.0 mi West 12.7 mph 21.9 mph N/A   Overcast
9:15 PM 47.8 °F - 36.0 °F 63% 29.89 in 10.0 mi WSW 9.2 mph - N/A   Overcast
9:35 PM 47.8 °F - 36.1 °F 64% 29.89 in 10.0 mi WSW 9.2 mph - N/A   Overcast
9:55 PM 47.3 °F - 36.0 °F 65% 29.89 in 10.0 mi WSW 8.1 mph - N/A   Overcast
10:15 PM 46.9 °F - 36.0 °F 66% 29.90 in 10.0 mi SSW 5.8 mph - N/A   Mostly Cloudy
10:35 PM 44.6 °F 42.2 °F 36.0 °F 72% 29.90 in 10.0 mi WSW 4.6 mph - N/A   Scattered Clouds
10:55 PM 43.7 °F 42.1 °F 35.6 °F 73% 29.90 in 10.0 mi SW 3.5 mph - N/A   Clear
11:15 PM 42.4 °F 39.6 °F 35.6 °F 77% 29.90 in 10.0 mi SW 4.6 mph - N/A   Clear
11:35 PM 42.3 °F 38.6 °F 35.6 °F 77% 29.89 in 10.0 mi SW 5.8 mph - N/A   Clear
11:55 PM 41.9 °F 38.2 °F 35.6 °F 78% 29.89 in 10.0 mi SW 5.8 mph - N/A   Clear